User: anonymous   Login
Location: Beddau
(51.5575°N, 3.3561°W)
Time: 02:04:36
(UTC+00:00)
Language:

MOS 1 - Orbit

View from above orbital plane
View from above orbital plane
View from above satellite
View from above satellite

Ground track
Ground track

The orbit data is extracted from the following two-line orbital elements,

1 17527U 87018A   21125.36608091  .00000025  00000-0  45507-4 0  9992
2 17527  99.1087 174.8900 0008146 347.1233  23.7102 14.02580296748044
Epoch (UTC): 05 May 2021 08:47:09
Eccentricity: 0.0008146
inclination: 99.1087°
perigee height: 879 km
apogee height: 891 km
right ascension of ascending node: 174.8900°
argument of perigee: 347.1233°
revolutions per day: 14.02580296
mean anomaly at epoch: 23.7102°
orbit number at epoch: 74804

The dashed part of the orbit path shows where the satellite is in the earth's shadow,  

DLR